Location: Mountain View
(42.7042°N, 73.6523°W)
Time: 19:49:30
(UTC+00:00)

ARIANE 6 FM1 Upper Stage - Visible Passes

Search period start: 06 October 2024 00:00
Search period end: 16 October 2024 00:00
Orbit: 564 x 594 km, 62.0° (Epoch: 06 October)

Date Brightness Start Highest point End Pass type
(mag) Time Alt. Az. Time Alt. Az. Time Alt. Az.
12 Oct 5.4 00:45:06 10° N 00:45:39 12° N 00:45:39 12° N visible
13 Oct 5.3 00:48:59 10° N 00:49:49 13° N 00:49:49 13° N visible
14 Oct 5.2 00:52:58 10° NNW 00:54:00 15° N 00:54:00 15° N visible
15 Oct 5.2 00:57:03 10° NNW 00:58:12 17° NNW 00:58:12 17° NNW visible
15 Oct 4.9 23:23:25 10° N 23:25:14 12° NNE 23:26:09 12° NE visible
